EJU31AM GMTT-EDDL

Flight info

Callsign EJU31AM
Flight time 2h 37m
Altitude 38000
Route BARPA DCT ALCOL N871 TOPTU DCT ESISI DCT ENUPA DCT RLP DCT ROUSY/N0436F370 M624 DIK N853 ELDAR DCT BIKMU BIKMU1A
Aircraft A319/M-SDE3FGHIRWY/LB1

Departure

Time 2026-05-04 17:01
Airport Tangier Ibn Battuta Airport (GMTT)

Arrival

Time 2026-05-04 19:39
Airport Düsseldorf Airport (EDDL)
Time Latitude Longitude Altitude Speed Heading
2026-05-04 16:40 35.72666 -5.91629 43 ft 0 kts 221°
2026-05-04 16:56 35.72662 -5.91634 43 ft 2 kts 222°
2026-05-04 16:56 35.72776 -5.91708 41 ft 12 kts 356°
2026-05-04 16:57 35.72870 -5.91719 41 ft 14 kts 355°
2026-05-04 16:57 35.72935 -5.91613 46 ft 8 kts 97°
2026-05-04 16:58 35.72916 -5.91406 52 ft 9 kts 96°
2026-05-04 16:58 35.72909 -5.91321 55 ft 10 kts 97°
2026-05-04 16:59 35.72888 -5.91110 59 ft 14 kts 97°
2026-05-04 17:00 35.72975 -5.90860 66 ft 6 kts 355°
2026-05-04 17:00 35.73064 -5.91034 61 ft 14 kts 275°
2026-05-04 17:01 35.73197 -5.92480 36 ft 149 kts 277°
2026-05-04 17:01 35.73481 -5.95148 1202 ft 161 kts 281°
2026-05-04 17:02 35.74849 -5.97020 2443 ft 174 kts 358°
2026-05-04 17:02 35.77278 -5.95584 3348 ft 219 kts 27°
2026-05-04 17:03 35.78646 -5.94643 3896 ft 237 kts 26°
2026-05-04 17:03 35.80152 -5.93643 4454 ft 255 kts 25°
2026-05-04 17:03 35.83425 -5.91494 5905 ft 276 kts 25°
2026-05-04 17:04 35.86866 -5.89241 7564 ft 287 kts 25°
2026-05-04 17:04 35.90445 -5.86904 9114 ft 299 kts 24°
2026-05-04 17:05 35.94194 -5.84457 10600 ft 313 kts 24°
2026-05-04 17:05 35.98239 -5.81821 11538 ft 343 kts 24°
2026-05-04 17:06 36.02517 -5.79021 12986 ft 353 kts 24°
2026-05-04 17:06 36.04670 -5.77609 13701 ft 356 kts 24°
2026-05-04 17:07 36.09079 -5.74716 15086 ft 364 kts 24°
2026-05-04 17:07 36.10577 -5.73733 15528 ft 366 kts 24°
2026-05-04 17:07 36.13603 -5.71747 16410 ft 371 kts 24°
2026-05-04 17:07 36.15888 -5.70245 17058 ft 375 kts 24°
2026-05-04 17:08 36.18200 -5.68726 17661 ft 379 kts 24°
2026-05-04 17:08 36.22881 -5.65645 18814 ft 386 kts 23°
2026-05-04 17:08 36.25249 -5.64085 19359 ft 390 kts 23°
2026-05-04 17:09 36.27668 -5.62488 19943 ft 394 kts 23°
2026-05-04 17:09 36.30093 -5.60888 20470 ft 398 kts 23°
2026-05-04 17:09 36.32538 -5.59276 21009 ft 402 kts 23°
2026-05-04 17:10 36.37509 -5.55989 22087 ft 408 kts 22°
2026-05-04 17:10 36.45084 -5.50973 23581 ft 418 kts 22°
2026-05-04 17:11 36.47686 -5.49247 24058 ft 421 kts 22°
2026-05-04 17:11 36.50250 -5.47546 24502 ft 425 kts 22°
2026-05-04 17:11 36.55503 -5.44059 25389 ft 431 kts 22°
2026-05-04 17:12 36.58178 -5.42280 25803 ft 435 kts 21°
2026-05-04 17:12 36.63511 -5.38726 26620 ft 441 kts 21°
2026-05-04 17:13 36.71693 -5.33266 27874 ft 447 kts 21°
2026-05-04 17:14 36.79959 -5.27738 28900 ft 455 kts 21°
2026-05-04 17:14 36.82769 -5.25858 29212 ft 458 kts 21°
2026-05-04 17:14 36.88401 -5.22080 29866 ft 463 kts 21°
2026-05-04 17:15 36.91244 -5.20167 30175 ft 465 kts 21°
2026-05-04 17:15 36.96958 -5.16326 30730 ft 471 kts 21°
2026-05-04 17:16 37.02754 -5.12420 31281 ft 475 kts 21°
2026-05-04 17:16 37.11396 -5.06579 32455 ft 471 kts 21°
2026-05-04 17:17 37.14292 -5.04617 32818 ft 470 kts 21°
2026-05-04 17:17 37.22899 -4.98785 33827 ft 469 kts 21°
2026-05-04 17:18 37.25761 -4.96843 34109 ft 469 kts 21°
2026-05-04 17:18 37.31466 -4.92967 34606 ft 469 kts 21°
2026-05-04 17:19 37.37187 -4.89074 35079 ft 470 kts 21°
2026-05-04 17:19 37.42929 -4.85154 35544 ft 470 kts 21°
2026-05-04 17:20 37.48660 -4.81238 36031 ft 469 kts 21°
2026-05-04 17:20 37.54375 -4.77326 36484 ft 470 kts 21°
2026-05-04 17:20 37.57278 -4.75339 36583 ft 473 kts 21°
2026-05-04 17:21 37.63092 -4.71352 36772 ft 479 kts 21°
2026-05-04 17:21 37.68967 -4.67314 36950 ft 485 kts 21°
2026-05-04 17:22 37.74903 -4.63225 37102 ft 490 kts 21°
2026-05-04 17:23 37.83947 -4.56979 37255 ft 497 kts 21°
2026-05-04 17:23 37.87002 -4.54865 37318 ft 499 kts 21°
2026-05-04 17:23 37.93090 -4.50642 37610 ft 498 kts 22°
2026-05-04 17:24 37.96138 -4.48525 37761 ft 498 kts 22°
2026-05-04 17:24 38.05247 -4.42187 37947 ft 499 kts 22°
2026-05-04 17:25 38.08257 -4.40097 37956 ft 498 kts 21°
2026-05-04 17:26 38.20511 -4.32023 37961 ft 502 kts 25°
2026-05-04 17:27 38.35522 -4.20300 37967 ft 509 kts 25°
2026-05-04 17:28 38.47700 -4.10921 37974 ft 512 kts 25°
2026-05-04 17:29 38.65935 -3.96824 37978 ft 511 kts 25°
2026-05-04 17:31 38.81097 -3.85041 37978 ft 510 kts 25°
2026-05-04 17:32 38.96243 -3.73211 37991 ft 510 kts 25°
2026-05-04 17:33 39.08379 -3.63687 37980 ft 510 kts 25°
2026-05-04 17:34 39.20449 -3.54176 37974 ft 510 kts 26°
2026-05-04 17:35 39.35580 -3.42198 37959 ft 509 kts 26°
2026-05-04 17:36 39.41617 -3.37403 37963 ft 509 kts 26°
2026-05-04 17:36 39.47660 -3.32596 37959 ft 510 kts 26°
2026-05-04 17:37 39.53667 -3.27804 37958 ft 511 kts 26°
2026-05-04 17:37 39.59721 -3.22965 37951 ft 511 kts 26°
2026-05-04 17:38 39.65775 -3.18114 37962 ft 511 kts 26°
2026-05-04 17:38 39.71787 -3.13287 37946 ft 510 kts 26°
2026-05-04 17:39 39.80807 -3.06030 37950 ft 510 kts 27°
2026-05-04 17:39 39.86855 -3.01151 37965 ft 510 kts 26°
2026-05-04 17:40 39.92870 -2.96288 37958 ft 510 kts 27°
2026-05-04 17:40 39.98895 -2.91407 37960 ft 511 kts 27°
2026-05-04 17:41 40.04908 -2.86525 37960 ft 511 kts 27°
2026-05-04 17:41 40.10925 -2.81631 37953 ft 510 kts 27°
2026-05-04 17:42 40.16949 -2.76717 37950 ft 510 kts 27°
2026-05-04 17:42 40.22986 -2.71784 37955 ft 510 kts 27°
2026-05-04 17:43 40.28987 -2.66873 37947 ft 510 kts 27°
2026-05-04 17:43 40.34948 -2.61980 37956 ft 509 kts 27°
2026-05-04 17:44 40.40973 -2.57028 37960 ft 510 kts 27°
2026-05-04 17:44 40.46978 -2.52078 37955 ft 510 kts 27°
2026-05-04 17:45 40.52924 -2.47033 37954 ft 511 kts 30°
2026-05-04 17:45 40.58788 -2.41745 37956 ft 511 kts 30°
2026-05-04 17:46 40.64622 -2.36467 37956 ft 511 kts 30°
2026-05-04 17:46 40.70455 -2.31204 37952 ft 510 kts 31°
2026-05-04 17:47 40.76333 -2.25898 37961 ft 510 kts 31°
2026-05-04 17:47 40.82156 -2.20635 37956 ft 510 kts 31°
2026-05-04 17:48 40.88011 -2.15332 37949 ft 510 kts 31°
2026-05-04 17:48 40.93832 -2.10047 37984 ft 510 kts 31°
2026-05-04 17:49 40.99670 -2.04736 37966 ft 511 kts 31°
2026-05-04 17:49 41.05512 -1.99410 37959 ft 510 kts 31°
2026-05-04 17:50 41.11366 -1.94062 37897 ft 510 kts 31°
2026-05-04 17:50 41.17176 -1.88742 37945 ft 511 kts 31°
2026-05-04 17:51 41.23041 -1.83359 37948 ft 510 kts 31°
2026-05-04 17:51 41.28888 -1.77981 37947 ft 511 kts 31°
2026-05-04 17:52 41.34703 -1.72620 37943 ft 511 kts 31°
2026-05-04 17:52 41.40535 -1.67236 37939 ft 511 kts 32°
2026-05-04 17:53 41.46334 -1.61864 37934 ft 511 kts 31°
2026-05-04 17:53 41.52152 -1.56463 37929 ft 510 kts 32°
2026-05-04 17:54 41.57998 -1.51027 37930 ft 510 kts 32°
2026-05-04 17:54 41.63776 -1.45643 37922 ft 511 kts 32°
2026-05-04 17:55 41.69606 -1.40195 37918 ft 510 kts 32°
2026-05-04 17:55 41.75407 -1.34763 37915 ft 510 kts 32°
2026-05-04 17:56 41.81224 -1.29304 37910 ft 510 kts 32°
2026-05-04 17:56 41.87026 -1.23846 37906 ft 510 kts 32°
2026-05-04 17:57 41.92832 -1.18376 37914 ft 512 kts 33°
2026-05-04 17:57 41.98651 -1.12876 37916 ft 512 kts 33°
2026-05-04 17:58 42.04446 -1.07389 37917 ft 512 kts 33°
2026-05-04 17:58 42.10244 -1.01885 37918 ft 511 kts 33°
2026-05-04 17:59 42.16040 -0.96373 37916 ft 510 kts 33°
2026-05-04 18:00 42.24705 -0.88107 37920 ft 510 kts 33°
2026-05-04 18:00 42.30470 -0.82590 37924 ft 510 kts 33°
2026-05-04 18:01 42.36220 -0.77075 37932 ft 510 kts 33°
2026-05-04 18:01 42.41983 -0.71537 37935 ft 510 kts 33°
2026-05-04 18:02 42.50648 -0.63182 37929 ft 511 kts 33°
2026-05-04 18:02 42.56425 -0.57600 37938 ft 511 kts 33°
2026-05-04 18:03 42.62188 -0.52015 37936 ft 511 kts 33°
2026-05-04 18:03 42.67954 -0.46414 37943 ft 511 kts 33°
2026-05-04 18:04 42.73716 -0.40806 37942 ft 511 kts 34°
2026-05-04 18:05 42.82373 -0.32353 37947 ft 511 kts 34°
2026-05-04 18:05 42.88114 -0.26733 37943 ft 511 kts 34°
2026-05-04 18:06 42.96734 -0.18267 37964 ft 510 kts 34°
2026-05-04 18:06 43.02506 -0.12580 37959 ft 510 kts 35°
2026-05-04 18:07 43.08194 -0.06966 37966 ft 509 kts 35°
2026-05-04 18:07 43.13940 -0.01277 37968 ft 507 kts 35°
2026-05-04 18:08 43.19635 0.04370 37972 ft 507 kts 35°
2026-05-04 18:08 43.25297 0.10000 37975 ft 507 kts 35°
2026-05-04 18:09 43.36692 0.21370 37967 ft 508 kts 35°
2026-05-04 18:10 43.42380 0.27067 37968 ft 507 kts 35°
2026-05-04 18:10 43.48084 0.32792 37964 ft 507 kts 35°
2026-05-04 18:11 43.53726 0.38468 37951 ft 506 kts 35°
2026-05-04 18:11 43.59412 0.44203 37943 ft 506 kts 35°
2026-05-04 18:12 43.65063 0.49917 37955 ft 506 kts 36°
2026-05-04 18:12 43.70743 0.55671 37867 ft 505 kts 36°
2026-05-04 18:13 43.76378 0.61394 37937 ft 507 kts 36°
2026-05-04 18:14 43.84904 0.70083 37943 ft 508 kts 36°
2026-05-04 18:14 43.90561 0.75863 37943 ft 508 kts 37°
2026-05-04 18:15 44.01882 0.87474 37943 ft 506 kts 37°
2026-05-04 18:16 44.07519 0.93275 37923 ft 506 kts 37°
2026-05-04 18:16 44.13163 0.99104 37908 ft 506 kts 37°
2026-05-04 18:17 44.21639 1.07878 37888 ft 507 kts 37°
2026-05-04 18:18 44.30093 1.16662 37885 ft 509 kts 37°
2026-05-04 18:18 44.35766 1.22570 37885 ft 510 kts 37°
2026-05-04 18:19 44.44234 1.31421 37882 ft 510 kts 37°
2026-05-04 18:19 44.49903 1.37365 37881 ft 510 kts 37°
2026-05-04 18:20 44.55586 1.43343 37880 ft 511 kts 37°
2026-05-04 18:20 44.61208 1.49265 37880 ft 510 kts 37°
2026-05-04 18:21 44.66867 1.55243 37886 ft 509 kts 37°
2026-05-04 18:21 44.72509 1.61217 37885 ft 510 kts 37°
2026-05-04 18:22 44.78156 1.67209 37886 ft 510 kts 37°
2026-05-04 18:22 44.83788 1.73205 37890 ft 509 kts 37°
2026-05-04 18:23 44.89388 1.79182 37890 ft 509 kts 37°
2026-05-04 18:23 44.95036 1.85225 37895 ft 509 kts 37°
2026-05-04 18:24 45.00633 1.91224 37906 ft 506 kts 38°
2026-05-04 18:24 45.06214 1.97226 37895 ft 507 kts 37°
2026-05-04 18:25 45.11810 2.03255 37869 ft 506 kts 38°
2026-05-04 18:25 45.17384 2.09280 37900 ft 507 kts 38°
2026-05-04 18:26 45.22957 2.15315 37895 ft 508 kts 38°
2026-05-04 18:26 45.28563 2.21405 37902 ft 509 kts 38°
2026-05-04 18:27 45.34162 2.27501 37903 ft 508 kts 38°
2026-05-04 18:27 45.39749 2.33599 37903 ft 508 kts 38°
2026-05-04 18:28 45.45351 2.39731 37912 ft 508 kts 38°
2026-05-04 18:28 45.50922 2.45844 37905 ft 509 kts 38°
2026-05-04 18:29 45.56501 2.51981 37893 ft 509 kts 38°
2026-05-04 18:29 45.62088 2.58145 37898 ft 509 kts 38°
2026-05-04 18:30 45.70500 2.67449 37918 ft 509 kts 38°
2026-05-04 18:31 45.76067 2.73630 37907 ft 510 kts 39°
2026-05-04 18:31 45.81640 2.79832 37916 ft 510 kts 38°
2026-05-04 18:32 45.87251 2.86096 37907 ft 511 kts 38°
2026-05-04 18:32 45.92817 2.92318 37897 ft 510 kts 39°
2026-05-04 18:33 45.98389 2.98569 37913 ft 511 kts 38°
2026-05-04 18:33 46.03959 3.04836 37917 ft 510 kts 38°
2026-05-04 18:34 46.09530 3.11118 37909 ft 510 kts 38°
2026-05-04 18:34 46.15119 3.17438 37915 ft 510 kts 38°
2026-05-04 18:35 46.20694 3.23759 37918 ft 510 kts 38°
2026-05-04 18:35 46.26242 3.30064 37933 ft 511 kts 38°
2026-05-04 18:36 46.31821 3.36418 37915 ft 510 kts 38°
2026-05-04 18:36 46.37334 3.42718 37919 ft 510 kts 38°
2026-05-04 18:37 46.42883 3.49079 37929 ft 510 kts 38°
2026-05-04 18:37 46.48435 3.55457 37928 ft 510 kts 38°
2026-05-04 18:38 46.53952 3.61813 37923 ft 509 kts 38°
2026-05-04 18:38 46.59483 3.68199 37926 ft 509 kts 39°
2026-05-04 18:39 46.65009 3.74598 37926 ft 509 kts 39°
2026-05-04 18:39 46.70531 3.81012 37937 ft 508 kts 39°
2026-05-04 18:40 46.76030 3.87413 37926 ft 508 kts 39°
2026-05-04 18:40 46.81522 3.93828 37929 ft 508 kts 39°
2026-05-04 18:41 46.87011 4.00253 37931 ft 508 kts 39°
2026-05-04 18:41 46.92525 4.06722 37930 ft 509 kts 39°
2026-05-04 18:42 46.97997 4.13163 37928 ft 508 kts 39°
2026-05-04 18:42 47.03497 4.19652 37935 ft 508 kts 39°
2026-05-04 18:43 47.08957 4.26113 37929 ft 507 kts 39°
2026-05-04 18:43 47.14457 4.32641 37934 ft 507 kts 39°
2026-05-04 18:44 47.19906 4.39126 37932 ft 506 kts 39°
2026-05-04 18:44 47.25344 4.45610 37932 ft 506 kts 39°
2026-05-04 18:45 47.30808 4.52150 37928 ft 505 kts 39°
2026-05-04 18:45 47.36228 4.58653 37936 ft 506 kts 39°
2026-05-04 18:46 47.41674 4.65205 37939 ft 506 kts 39°
2026-05-04 18:46 47.47088 4.71733 37940 ft 506 kts 39°
2026-05-04 18:47 47.52511 4.78293 37940 ft 505 kts 39°
2026-05-04 18:47 47.57923 4.84860 37939 ft 506 kts 39°
2026-05-04 18:48 47.63347 4.91457 37937 ft 505 kts 39°
2026-05-04 18:48 47.68786 4.98094 37939 ft 505 kts 39°
2026-05-04 18:49 47.74176 5.04689 37951 ft 505 kts 39°
2026-05-04 18:49 47.79572 5.11311 37952 ft 504 kts 39°
2026-05-04 18:50 47.85017 5.17860 37951 ft 504 kts 36°
2026-05-04 18:50 47.90836 5.23601 37996 ft 504 kts 29°
2026-05-04 18:51 47.97064 5.28294 38190 ft 502 kts 21°
2026-05-04 18:51 48.00259 5.30207 38291 ft 500 kts 19°
2026-05-04 18:51 48.03531 5.31981 38398 ft 499 kts 18°
2026-05-04 18:52 48.10072 5.35435 38568 ft 499 kts 17°
2026-05-04 18:52 48.16605 5.38912 38726 ft 498 kts 18°
2026-05-04 18:53 48.23095 5.42405 38884 ft 497 kts 18°
2026-05-04 18:53 48.29558 5.45900 38943 ft 497 kts 18°
2026-05-04 18:54 48.36026 5.49408 38948 ft 496 kts 18°
2026-05-04 18:54 48.42490 5.52925 38952 ft 495 kts 18°
2026-05-04 18:55 48.48955 5.56452 38949 ft 495 kts 18°
2026-05-04 18:55 48.58611 5.61738 38959 ft 494 kts 18°
2026-05-04 18:56 48.65053 5.65275 38962 ft 494 kts 19°
2026-05-04 18:56 48.71510 5.68833 38955 ft 494 kts 19°
2026-05-04 18:57 48.77952 5.72391 38959 ft 494 kts 19°
2026-05-04 18:57 48.84354 5.75936 38950 ft 493 kts 19°
2026-05-04 18:58 48.90825 5.79532 38950 ft 493 kts 19°
2026-05-04 18:58 48.97211 5.83087 38957 ft 492 kts 19°
2026-05-04 18:59 49.03640 5.86678 38954 ft 493 kts 19°
2026-05-04 18:59 49.10076 5.90283 38948 ft 494 kts 19°
2026-05-04 19:00 49.16484 5.93881 38957 ft 494 kts 19°
2026-05-04 19:00 49.22900 5.97493 38953 ft 494 kts 19°
2026-05-04 19:01 49.29319 6.01118 38954 ft 493 kts 19°
2026-05-04 19:01 49.35742 6.04758 38952 ft 492 kts 19°
2026-05-04 19:02 49.42165 6.08200 38954 ft 492 kts 15°
2026-05-04 19:02 49.48806 6.10630 38948 ft 490 kts
2026-05-04 19:03 49.55526 6.11854 38959 ft 488 kts
2026-05-04 19:03 49.62269 6.12176 38954 ft 487 kts 359°
2026-05-04 19:04 49.69037 6.12375 38952 ft 488 kts 359°
2026-05-04 19:04 49.75836 6.12615 38949 ft 489 kts 359°
2026-05-04 19:05 49.82606 6.12869 38960 ft 489 kts 359°
2026-05-04 19:05 49.89365 6.13069 38952 ft 489 kts 358°
2026-05-04 19:06 49.96160 6.13090 38942 ft 489 kts 358°
2026-05-04 19:06 50.02958 6.13106 38942 ft 490 kts 358°
2026-05-04 19:07 50.09711 6.13138 38942 ft 489 kts 358°
2026-05-04 19:07 50.16504 6.13176 38385 ft 490 kts 358°
2026-05-04 19:08 50.19912 6.13196 37754 ft 492 kts 358°
2026-05-04 19:08 50.23321 6.13216 37063 ft 495 kts 358°
2026-05-04 19:08 50.26772 6.13246 36401 ft 498 kts 358°
2026-05-04 19:08 50.30218 6.13519 35848 ft 498 kts
2026-05-04 19:09 50.33643 6.14137 35337 ft 496 kts
2026-05-04 19:09 50.37010 6.14947 34799 ft 494 kts
2026-05-04 19:09 50.40398 6.15825 34004 ft 495 kts
2026-05-04 19:09 50.43782 6.16721 33151 ft 496 kts
2026-05-04 19:10 50.47082 6.18201 32293 ft 498 kts 21°
2026-05-04 19:10 50.49151 6.19734 31731 ft 498 kts 29°
2026-05-04 19:10 50.52829 6.24000 30603 ft 496 kts 45°
2026-05-04 19:10 50.55056 6.28117 29749 ft 491 kts 57°
2026-05-04 19:11 50.56840 6.32551 28922 ft 488 kts 62°
2026-05-04 19:11 50.58533 6.37144 28095 ft 485 kts 62°
2026-05-04 19:11 50.60177 6.41720 27531 ft 476 kts 62°
2026-05-04 19:11 50.61767 6.46195 26992 ft 468 kts 63°
2026-05-04 19:12 50.63322 6.50594 26455 ft 460 kts 63°
2026-05-04 19:12 50.66242 6.59351 25352 ft 443 kts 71°
2026-05-04 19:12 50.66949 6.63982 24787 ft 432 kts 86°
2026-05-04 19:13 50.66906 6.68589 24232 ft 421 kts 100°
2026-05-04 19:13 50.66491 6.73119 23678 ft 414 kts 103°
2026-05-04 19:13 50.66011 6.77512 23155 ft 407 kts 103°
2026-05-04 19:13 50.65527 6.81813 22764 ft 391 kts 103°
2026-05-04 19:14 50.65048 6.85935 22379 ft 375 kts 106°
2026-05-04 19:14 50.64120 6.89591 21984 ft 354 kts 127°
2026-05-04 19:14 50.62522 6.92302 21605 ft 333 kts 148°
2026-05-04 19:14 50.60491 6.93767 21218 ft 315 kts 171°
2026-05-04 19:15 50.58378 6.93809 20832 ft 300 kts 194°
2026-05-04 19:15 50.56568 6.92462 20443 ft 289 kts 223°
2026-05-04 19:15 50.55047 6.89101 19942 ft 283 kts 243°
2026-05-04 19:15 50.54596 6.87172 19684 ft 284 kts 256°
2026-05-04 19:16 50.54528 6.84104 19307 ft 288 kts 278°
2026-05-04 19:16 50.55243 6.81150 18926 ft 293 kts 301°
2026-05-04 19:16 50.56636 6.78867 18551 ft 297 kts 324°
2026-05-04 19:16 50.58537 6.77581 18176 ft 301 kts 347°
2026-05-04 19:17 50.60617 6.77076 17810 ft 301 kts 351°
2026-05-04 19:17 50.62677 6.76667 17442 ft 301 kts 352°
2026-05-04 19:17 50.64752 6.76253 17074 ft 300 kts 351°
2026-05-04 19:17 50.66799 6.75831 16705 ft 300 kts 351°
2026-05-04 19:18 50.68863 6.75394 16333 ft 300 kts 351°
2026-05-04 19:18 50.70931 6.74947 15961 ft 300 kts 351°
2026-05-04 19:18 50.72993 6.74496 15588 ft 300 kts 351°
2026-05-04 19:18 50.75045 6.74044 15214 ft 300 kts 351°
2026-05-04 19:19 50.77100 6.73591 14839 ft 299 kts 351°
2026-05-04 19:19 50.79149 6.73135 14467 ft 299 kts 351°
2026-05-04 19:19 50.81222 6.72675 14092 ft 299 kts 351°
2026-05-04 19:19 50.83273 6.72219 13720 ft 298 kts 351°
2026-05-04 19:20 50.85302 6.71769 13355 ft 298 kts 351°
2026-05-04 19:20 50.87357 6.71312 12985 ft 298 kts 351°
2026-05-04 19:20 50.89392 6.70861 12616 ft 298 kts 351°
2026-05-04 19:20 50.91436 6.70406 12247 ft 298 kts 351°
2026-05-04 19:21 50.93494 6.69949 11909 ft 293 kts 351°
2026-05-04 19:21 50.95490 6.69562 11571 ft 288 kts 358°
2026-05-04 19:21 50.97482 6.69591 11245 ft 283 kts
2026-05-04 19:21 50.99419 6.69767 10983 ft 277 kts
2026-05-04 19:22 51.01329 6.69970 10941 ft 276 kts
2026-05-04 19:22 51.03249 6.70184 10930 ft 276 kts
2026-05-04 19:22 51.05161 6.70395 10934 ft 276 kts
2026-05-04 19:22 51.07067 6.70601 10939 ft 276 kts
2026-05-04 19:23 51.08953 6.70812 10939 ft 275 kts
2026-05-04 19:23 51.10878 6.71022 10941 ft 274 kts
2026-05-04 19:23 51.12758 6.71222 10945 ft 276 kts
2026-05-04 19:23 51.14673 6.71499 10939 ft 276 kts 12°
2026-05-04 19:24 51.16502 6.72391 10944 ft 275 kts 21°
2026-05-04 19:24 51.18281 6.73513 10946 ft 275 kts 23°
2026-05-04 19:24 51.20032 6.74673 10945 ft 275 kts 23°
2026-05-04 19:24 51.21795 6.75857 10780 ft 276 kts 23°
2026-05-04 19:25 51.23555 6.77045 10408 ft 277 kts 23°
2026-05-04 19:25 51.25326 6.78246 10039 ft 277 kts 23°
2026-05-04 19:25 51.27093 6.79447 9657 ft 277 kts 23°
2026-05-04 19:25 51.28877 6.80575 9282 ft 277 kts 14°
2026-05-04 19:26 51.30750 6.80834 8909 ft 276 kts 356°
2026-05-04 19:26 51.32668 6.80644 8577 ft 274 kts 354°
2026-05-04 19:26 51.34547 6.80382 8301 ft 270 kts 353°
2026-05-04 19:26 51.36405 6.80108 8035 ft 266 kts 353°
2026-05-04 19:27 51.38223 6.79839 7946 ft 258 kts 353°
2026-05-04 19:27 51.39983 6.79580 7948 ft 258 kts 353°
2026-05-04 19:27 51.41768 6.79338 7958 ft 258 kts 357°
2026-05-04 19:27 51.43524 6.79866 7955 ft 259 kts 26°
2026-05-04 19:28 51.44936 6.81617 7803 ft 259 kts 48°
2026-05-04 19:28 51.46085 6.83777 7558 ft 257 kts 52°
2026-05-04 19:28 51.47183 6.85988 7310 ft 256 kts 53°
2026-05-04 19:28 51.48283 6.88251 7059 ft 254 kts 53°
2026-05-04 19:29 51.49353 6.90485 6908 ft 254 kts 53°
2026-05-04 19:29 51.50411 6.92702 6640 ft 254 kts 53°
2026-05-04 19:29 51.51479 6.94936 6368 ft 253 kts 53°
2026-05-04 19:29 51.52542 6.97143 6094 ft 252 kts 53°
2026-05-04 19:30 51.53614 6.99368 5814 ft 252 kts 53°
2026-05-04 19:30 51.54675 7.01591 5536 ft 250 kts 53°
2026-05-04 19:30 51.55719 7.03790 5253 ft 249 kts 54°
2026-05-04 19:30 51.56532 7.06200 4978 ft 243 kts 79°
2026-05-04 19:31 51.56468 7.08856 4943 ft 239 kts 112°
2026-05-04 19:31 51.55578 7.11052 4947 ft 237 kts 136°
2026-05-04 19:31 51.54359 7.12822 4942 ft 235 kts 146°
2026-05-04 19:31 51.52896 7.13853 4809 ft 231 kts 175°
2026-05-04 19:32 51.51339 7.13568 4519 ft 227 kts 198°
2026-05-04 19:32 51.49874 7.12731 4249 ft 224 kts 202°
2026-05-04 19:32 51.48425 7.11792 3997 ft 223 kts 203°
2026-05-04 19:32 51.47011 7.10852 3752 ft 223 kts 202°
2026-05-04 19:33 51.45664 7.09746 3503 ft 223 kts 211°
2026-05-04 19:33 51.44425 7.08310 3258 ft 223 kts 222°
2026-05-04 19:33 51.43362 7.06510 3018 ft 220 kts 232°
2026-05-04 19:33 51.42453 7.04529 2986 ft 222 kts 233°
2026-05-04 19:34 51.41563 7.02532 2980 ft 221 kts 233°
2026-05-04 19:34 51.40655 7.00559 2974 ft 217 kts 232°
2026-05-04 19:34 51.39771 6.98693 2965 ft 203 kts 232°
2026-05-04 19:34 51.38951 6.96984 2955 ft 190 kts 231°
2026-05-04 19:35 51.38157 6.95336 2827 ft 185 kts 231°
2026-05-04 19:35 51.37369 6.93700 2584 ft 184 kts 232°
2026-05-04 19:35 51.36597 6.92095 2370 ft 181 kts 232°
2026-05-04 19:35 51.35864 6.90563 2159 ft 169 kts 231°
2026-05-04 19:36 51.35146 6.89065 1911 ft 169 kts 231°
2026-05-04 19:36 51.34441 6.87593 1687 ft 163 kts 231°
2026-05-04 19:36 51.33785 6.86219 1457 ft 152 kts 231°
2026-05-04 19:36 51.33167 6.84924 1249 ft 140 kts 231°
2026-05-04 19:37 51.32616 6.83768 1048 ft 128 kts 231°
2026-05-04 19:37 51.32086 6.82662 863 ft 125 kts 231°
2026-05-04 19:37 51.31561 6.81555 706 ft 124 kts 231°
2026-05-04 19:37 51.31043 6.80448 534 ft 124 kts 231°
2026-05-04 19:38 51.30518 6.79356 396 ft 124 kts 230°
2026-05-04 19:38 51.29998 6.78276 268 ft 124 kts 231°
2026-05-04 19:38 51.29476 6.77187 128 ft 118 kts 231°
2026-05-04 19:38 51.29036 6.76275 126 ft 86 kts 232°
2026-05-04 19:39 51.28836 6.75865 124 ft 13 kts 230°
2026-05-04 19:39 51.28758 6.75755 122 ft 16 kts 214°
2026-05-04 19:39 51.28656 6.75682 120 ft 15 kts 183°
2026-05-04 19:39 51.28569 6.75686 120 ft 10 kts 169°
2026-05-04 19:40 51.28531 6.75707 120 ft 0 kts 158°
2026-05-04 19:40 51.28516 6.75716 120 ft 5 kts 154°
2026-05-04 19:40 51.28482 6.75751 120 ft 3 kts 144°
2026-05-04 19:40 51.28474 6.75760 120 ft 0 kts 143°
2026-05-04 19:43 51.28470 6.75765 120 ft 1 kts 142°
2026-05-04 19:43 51.28458 6.75780 120 ft 3 kts 142°
2026-05-04 19:44 51.28438 6.75804 120 ft 4 kts 143°
2026-05-04 19:44 51.28413 6.75834 120 ft 5 kts 143°
2026-05-04 19:44 51.28405 6.75845 120 ft 0 kts 143°
2026-05-04 19:45 51.28404 6.75846 120 ft 0 kts 142°
2026-05-04 19:46 51.28402 6.75848 120 ft 0 kts 143°
2026-05-04 19:47 51.28395 6.75857 120 ft 4 kts 142°
2026-05-04 19:47 51.28356 6.75905 120 ft 10 kts 143°
2026-05-04 19:48 51.28291 6.75982 119 ft 16 kts 143°
2026-05-04 19:48 51.28208 6.76069 119 ft 6 kts 146°
2026-05-04 19:48 51.28189 6.76090 119 ft 3 kts 145°
2026-05-04 19:48 51.28186 6.76093 119 ft 0 kts 145°
2026-05-04 19:49 51.28178 6.76096 119 ft 3 kts 178°
2026-05-04 19:49 51.28149 6.76060 118 ft 8 kts 231°
2026-05-04 19:50 51.28101 6.75959 117 ft 12 kts 232°
2026-05-04 19:50 51.28049 6.75850 117 ft 9 kts 232°
2026-05-04 19:50 51.27988 6.75823 117 ft 11 kts 179°
2026-05-04 19:50 51.27910 6.75819 119 ft 12 kts 182°
2026-05-04 19:51 51.27822 6.75815 121 ft 13 kts 181°
2026-05-04 19:51 51.27729 6.75810 123 ft 13 kts 181°
2026-05-04 19:51 51.27675 6.75814 124 ft 5 kts 145°
2026-05-04 19:51 51.27667 6.75867 123 ft 6 kts 90°
2026-05-04 19:52 51.27667 6.75913 124 ft 4 kts 91°
2026-05-04 19:52 51.27667 6.75925 124 ft 0 kts 91°